Location: Bittkow
(50.3000°N, 19.0000°E)
Time: 11:47:33
(UTC+00:00)

Cosmos 1782 - Pass Details

Date: 19 September 2020
Orbit: 535 x 553 km, 82.5° (Epoch: 23 October)

Event Time Altitude Azimuth Distance (km) Brightness Sun altitude
Exits shadow 03:10:40 20° 254° (WSW) 1,313 4.1 -12.7°
Maximum altitude 03:12:17 26° 290° (WNW) 1,117 3.9 -12.4°
Drops below altitude 10° 03:15:44 10° 348° (NNW) 1,846 5.6 -11.9°
Sets 03:18:12 0° 2° (N) 2,745 6.6 -11.5°
